Home > Weather > Juneau > Past weeks

Flag for USA Weather for the Past 2 Weeks in Juneau, Alaska, USA

Now
47 °F

Light rain. Mostly cloudy.


Feels Like: 40 °F
Forecast: 42 / 46 °F
Wind: 17 mph from Southeast

Location: Juneau International Airport

Current Time: May 1, 2016 at 7:39:47 AM

Latest Report: May 1, 2016 at 6:53 AM


Visibility: 9 mi

Pressure: 29.99 "Hg

Humidity: 86%

Dew Point: 43 °F

Location of JuneauLocation

Historic Weather in Juneau — Graph

°F

Juneau Temperature Yesterday

Maximum temperature yesterday: 47 °F (at 10:53 PM)
Minimum temperature yesterday: 42 °F (at 9:53 AM)
Average temperature yesterday: 44 °F

High & Low Weather Summary for the Past Weeks

 TemperatureHumidityPressure
High61 °F (Apr 22, 3:53 PM)97% (Apr 23, 9:53 AM)30.31 "Hg (Apr 23, 9:53 AM)
Low30 °F (Apr 20, 4:53 AM)33% (Apr 20, 3:53 PM)29.62 "Hg (Apr 22, 9:53 PM)
Average46 °F79%29.95 "Hg
* Reported Apr 16 5:53 AM — May 1 5:53 AM, Juneau, Weather by CustomWeather, © 2016

Note: Actual official high and low records may vary slightly from our data, if they occured in-between our weather recording intervals... More about our weather records

Advertising

Juneau Weather History for the Previous 24 Hours

Scroll right to see more
 ConditionsComfort  
Time TempWeatherWind HumidityBarometerVisibility
5:53 AM
Sun, May 1
47 °FMostly cloudy.17 mph86%30.00 "Hg10 mi
4:53 AM46 °FMostly cloudy.16 mph86%30.00 "Hg10 mi
3:53 AM46 °FMostly cloudy.17 mph86%29.99 "Hg10 mi
2:53 AM46 °FLight rain. Mostly cloudy.20 mph86%30.00 "Hg10 mi
1:53 AM46 °FLight rain. Overcast.18 mph83%29.99 "Hg10 mi
12:53 AM47 °FLight rain. Mostly cloudy.18 mph77%29.99 "Hg10 mi
11:53 PM
Sat, Apr 30
47 °FLight rain. Overcast.17 mph74%30.00 "Hg10 mi
10:53 PM47 °FLight rain. Mostly cloudy.20 mph77%30.00 "Hg10 mi
9:53 PM46 °FLight rain. Mostly cloudy.22 mph79%29.98 "Hg10 mi
8:53 PM45 °FLight rain. More clouds than sun.21 mph90%29.98 "Hg9 mi
7:53 PM45 °FLight rain. More clouds than sun.24 mph90%29.96 "Hg7 mi
6:53 PM45 °FLight rain. Fog.25 mph90%29.96 "Hg6 mi
5:53 PM45 °FLight rain. Mostly cloudy.25 mph86%29.96 "Hg8 mi
4:53 PM45 °FLight rain. Mostly cloudy.21 mph86%29.96 "Hg10 mi
3:53 PM45 °FLight rain. Mostly cloudy.24 mph86%29.96 "Hg7 mi
2:53 PM44 °FLight rain. Mostly cloudy.29 mph82%29.96 "Hg5 mi
1:53 PM43 °FLight rain. Mostly cloudy.22 mph82%29.96 "Hg6 mi
12:53 PM42 °FRain. Fog.17 mph85%29.97 "Hg4 mi
11:53 AM43 °FLight rain. Fog.16 mph86%29.97 "Hg6 mi
10:53 AM42 °FLight rain. Fog.15 mph85%29.97 "Hg6 mi
9:53 AM42 °FLight rain. Fog.18 mph85%30.00 "Hg5 mi
8:53 AM43 °FLight rain. Mostly cloudy.24 mph82%30.01 "Hg5 mi
7:53 AM44 °FLight rain. Mostly cloudy.15 mph79%30.04 "Hg7 mi
Weather by CustomWeather, © 2016

See weather overviewHow to use our weather pages